7 * 24
多渠道服务支持
STARLINK-35506是美国SpaceX公司星链计划中的一颗卫星,于2025年11月6日发射入轨。星链项目旨在构建全球卫星互联网星座,为全球偏远地区、海上以及空中等缺乏网络覆盖区域用户提供高速宽带服务,这颗卫星的成功发射进一步扩充了星链在轨卫星规模,提升星座网络覆盖能力与服务稳定性。
美国
(US)
| 数据来源 | 国际轨道数据 |
| 星历时间: | 2026-09-11T07:07:57+0800 11小时前 查看轨道信息 |
| 半长轴: | 6861.145km |
| 偏心率: | 0.0000447 |
| 轨道倾角: | 43.002° |
| 近地点辐角 | 195.065° |
| 升交点赤经 | 245.841° |
| 平近点角 | 165.019° |
| 近地点: | 482.701km |
| 远地点: | 483.315km |
| 周期: | 94.266分钟 |
| 每日圈数: | 15.27594 |